Location: Dompnac
(44.5644°N, 4.1026°E)
Time: 10:01:08
(UTC+00:00)

Cosmos 1603 - Pass Details

Date: 19 September 2020
Orbit: 832 x 858 km, 71.0° (Epoch: 29 October)

Event Time Altitude Azimuth Distance (km) Brightness Sun altitude
Rises 18:08:09 0° 335° (NNW) 3,418 7.3 -4.8°
Reaches altitude 10° 18:10:37 10° 337° (NNW) 2,475 6.6 -5.2°
Maximum altitude 18:16:19 78° 63° (ENE) 863 3.7 -6.2°
Drops below altitude 10° 18:21:56 10° 151° (SSE) 2,443 5.8 -7.2°
Sets 18:24:21 0° 153° (SSE) 3,370 6.5 -7.6°
